Location: Alma
(38.7220°N, 88.9090°W)
Time: 09:52:26
(UTC-06:00)

Tiros 1 - Visible Passes

Search period start: 18 November 2019 00:00
Search period end: 28 November 2019 00:00
Orbit: 630 x 664 km, 48.4° (Epoch: 18 November)

Date Brightness Start Highest point End Pass type
(mag) Time Alt. Az. Time Alt. Az. Time Alt. Az.
18 Nov 8.6 17:07:40 10° NW 17:11:28 24° N 17:15:17 10° NE visible
18 Nov 8.3 18:50:13 10° NW 18:53:23 32° NNW 18:53:23 32° NNW visible
19 Nov 8.4 17:34:04 10° NW 17:38:02 27° N 17:40:46 16° ENE visible
19 Nov 8.8 19:16:12 10° NW 19:18:26 27° NW 19:18:26 27° NW visible
20 Nov 7.9 18:00:12 10° NW 18:04:31 36° NNE 18:05:55 29° ENE visible
20 Nov 9.6 19:42:18 10° WNW 19:43:35 18° WNW 19:43:35 18° WNW visible
21 Nov 7.1 18:26:12 10° NW 18:30:48 60° NNE 18:31:10 58° NE visible
21 Nov 10.3 20:08:48 10° WNW 20:08:51 10° WNW 20:08:51 10° WNW visible
22 Nov 7.9 17:10:11 10° NW 17:14:27 35° NNE 17:18:43 10° E visible
22 Nov 7.4 18:52:16 10° WNW 18:56:34 66° WSW 18:56:34 66° WSW visible
23 Nov 7.2 17:36:11 10° NW 17:40:46 57° NNE 17:44:27 15° ESE visible
23 Nov 8.8 19:18:42 10° WNW 19:22:10 29° WSW 19:22:10 29° WSW visible
24 Nov 7.2 18:02:14 10° WNW 18:06:53 74° SW 18:10:18 18° SE visible
24 Nov 10.0 19:46:20 10° WSW 19:48:03 13° SW 19:48:03 13° SW visible
25 Nov 8.7 18:28:37 10° WNW 18:32:46 33° SW 18:36:32 12° SSE visible
26 Nov 7.3 17:12:12 10° WNW 17:16:51 80° SW 17:21:31 10° SE visible
26 Nov 9.9 18:56:00 10° W 18:58:28 14° SW 19:00:57 10° SSW visible
27 Nov 8.7 17:38:32 10° WNW 17:42:46 36° SW 17:47:01 10° SSE visible
